Find Starlink 4339

NORAD ID: 53054 Int'l Des: 2022-077 Owner: SPXS Country: US Constellation: starlink operational
LEOCIRCULARRETROGRADESSO

实时位置

正在加载3D地球...

关于 Starlink 4339

正在加载描述...

即将过境

Passes for default location (London). Set your location on the main map for personalized predictions.

高度历史

Loading altitude history...

两行轨道根数

1 53054U 22077M 26124.46262432 .00000085 00000-0 10022-4 0 9991
2 53054 97.5359 306.1631 0001623 75.0449 285.0958 15.05654076209375
Epoch: May 4, 2026 • Age: 15 hours

当前状态

高度 559.1 km
速度 7.59 km/s
星下点 60.91°N, 112.24°W
发射日期 Jul 11, 2022
运行时间 3.8 years
类型 internet

技术详情

分类 Payload
质量 297.00 kg
干质量 275.00 kg
总质量 297.00 kg
长度 0.20 m
直径 2.80 m
跨度 9.00 m
形状 Box + pan
制造商 SPXS
平台类型 Starlink
阶段状态 In Orbit
所有者/国家 SPXS/US

Most Searched